Вернуться в каталог

THOR ABLESTAR DEB

АктивенLEO
NORAD 516·DEBRIS·🇺🇸 United States

Запущен Jun 29, 1961 с Cape Canaveral Space Force Station

Loading…

Ближайшие Пролёты (ближайшие 24 часа)

TLE

СвежийSource: Space-Track

Эпоха: Sep 14, 2026, 11:22 UTC

1 00516U 61015FT  26257.47386724  .00000083  00000-0  12544-3 0  9998
2 00516  65.9933 281.1264 0071544  93.4552 267.4708 13.92843550300829

Отслеживайте THOR ABLESTAR DEB в реальном времени с AllMySat

Download on the App Store